DW8069 Weather Reports


Display with metric or nautical units.
time (UTC)temp
F
wind
direction
speed
MPH
gust
MPH
rain 1hr
in
rain 24hr
in
rain mn
in
humidity
%
barometer
mb
20260906064501 66 58 0.0 1.0 0.00 0.17 0.00 89 1013.2
20260906063058 65 58 0.0 0.0 0.00 0.00 0.00 89 1013.8
20260906061625 66 58 0.0 1.0 0.00 0.17 0.00 89 1013.9
20260906060054 66 58 0.0 1.0 0.00 0.17 0.00 89 1013.8
20260906054554 66 58 0.0 1.0 0.00 0.17 0.00 90 1014.1
20260906053056 66 58 0.0 1.0 0.00 0.17 0.00 89 1014.1
20260906051551 66 58 0.0 1.0 0.00 0.17 0.00 90 1014.3
20260906050107 66 58 0.0 0.0 0.00 0.17 0.00 90 1014.3
20260906044549 66 58 0.0 1.0 0.00 0.17 0.00 90 1014.3
20260906043104 66 58 0.0 1.0 0.00 0.17 0.00 90 1014.3
20260906041546 66 58 0.0 0.0 0.00 0.17 0.00 90 1014.2
20260906040059 66 58 0.0 1.0 0.00 0.17 0.00 90 1014.4
20260906034541 66 58 0.0 1.0 0.00 0.17 0.17 90 1014.4
20260906033040 66 58 0.0 1.0 0.00 0.17 0.17 90 1014.5
20260906031540 66 58 0.0 1.0 0.00 0.17 0.17 90 1014.6
20260906030039 67 58 0.0 1.0 0.00 0.17 0.17 90 1014.5
20260906024539 67 58 0.0 1.0 0.00 0.17 0.17 89 1014.4
20260906023054 66 58 0.0 0.0 0.00 0.17 0.17 89 1014.4
20260906021539 66 58 0.0 1.0 0.00 0.17 0.17 89 1014.4
20260906020037 66 58 1.0 2.0 0.00 0.17 0.17 89 1014.3
20260906014550 67 71 0.0 1.0 0.00 0.17 0.17 87 1014.1
20260906013037 68 81 0.0 1.0 0.00 0.17 0.17 85 1014.2
20260906011549 68 165 0.0 2.0 0.00 0.17 0.17 85 1014.0
20260906010037 68 110 0.0 1.0 0.00 0.17 0.17 85 1013.9
20260906004539 68 110 0.0 1.0 0.00 0.17 0.17 84 1013.6
20260906003035 68 110 0.0 3.0 0.00 0.17 0.17 83 1013.5
20260906001534 68 98 0.0 1.0 0.00 0.17 0.17 83 1013.4
20260906000035 68 119 0.0 1.0 0.00 0.17 0.17 81 1013.2
20260905234539 68 120 0.0 1.0 0.00 0.17 0.17 83 1013.1
20260905233032 69 120 0.0 1.0 0.00 0.17 0.17 82 1013.2
20260905231532 69 121 0.0 2.0 0.00 0.17 0.17 78 1013.1
20260905230031 70 159 0.0 2.0 0.00 0.17 0.17 79 1013.0
20260905224535 70 124 0.0 2.0 0.00 0.17 0.17 80 1013.0
20260905223035 71 160 0.0 3.0 0.00 0.17 0.17 79 1013.1
20260905221530 71 158 0.0 3.0 0.00 0.17 0.17 80 1013.1
20260905220029 72 153 0.0 3.0 0.00 0.17 0.17 79 1013.2
20260905214527 72 163 0.0 3.0 0.00 0.17 0.17 80 1013.1
20260905213029 72 124 0.0 2.0 0.00 0.17 0.17 80 1013.0
20260905211528 72 106 0.0 2.0 0.00 0.17 0.17 78 1013.1
20260905210027 72 115 0.0 2.0 0.00 0.17 0.17 80 1013.2
20260905204527 72 129 0.0 1.0 0.00 0.17 0.17 81 1013.1
20260905203026 71 110 0.0 3.0 0.00 0.17 0.17 81 1013.0
20260905201525 71 110 0.0 3.0 0.00 0.17 0.17 81 1012.9
20260905200034 70 242 0.0 1.0 0.00 0.17 0.17 82 1012.9
20260905194526 70 43 0.0 2.0 0.00 0.17 0.17 86 1013.1
20260905193024 69 30 1.0 2.0 0.00 0.17 0.17 92 1013.0
20260905191525 67 26 1.0 2.0 0.00 0.17 0.17 93 1013.1
20260905190039 67 50 0.0 1.0 0.00 0.17 0.17 93 1013.4
20260905184518 65 50 0.0 1.0 0.00 0.17 0.17 94 1013.4
20260905183018 64 50 0.0 1.0 0.01 0.17 0.17 94 1013.5
20260905181518 63 50 0.0 1.0 0.01 0.17 0.17 93 1014.0
20260905180019 64 50 0.0 1.0 0.01 0.17 0.17 93 1014.2
20260905174511 64 31 1.0 2.0 0.06 0.17 0.17 92 1014.8
20260905173011 64 76 0.0 1.0 0.16 0.16 0.16 92 1015.2
20260905171510 64 76 0.0 1.0 0.16 0.16 0.16 90 1015.7
20260905170006 65 76 0.0 4.0 0.15 0.15 0.15 89 1016.0
20260905164502 68 163 2.0 15.0 0.10 0.10 0.10 83 1016.2
20260905163100 74 110 0.0 3.0 0.00 0.00 0.00 79 1015.5
20260905161600 75 151 0.0 4.0 0.00 0.00 0.00 77 1015.3
20260905160119 77 175 1.0 6.0 0.00 0.00 0.00 74 1015.0
20260905154600 77 150 0.0 4.0 0.00 0.00 0.00 76 1015.3
20260905153106 76 89 1.0 4.0 0.00 0.00 0.00 77 1015.4
20260905151558 77 52 0.0 2.0 0.00 0.00 0.00 76 1015.2
20260905150055 76 10 0.0 2.0 0.00 0.00 0.00 79 1015.1
20260905144554 76 53 0.0 2.0 0.00 0.00 0.00 79 1014.9
20260905143054 76 305 0.0 2.0 0.00 0.00 0.00 79 1015.0
20260905141556 75 254 0.0 1.0 0.00 0.00 0.00 79 1015.3
20260905134549 75 106 0.0 1.0 0.00 0.00 0.00 81 1015.1
20260905133045 73 352 0.0 1.0 0.00 0.00 0.00 84 1015.2
20260905131557 72 130 0.0 3.0 0.00 0.00 0.00 85 1015.5
20260905130046 71 41 0.0 0.0 0.00 0.00 0.00 86 1015.5
20260905124539 70 48 0.0 0.0 0.00 0.00 0.00 86 1015.5
20260905123038 70 46 0.0 0.0 0.00 0.00 0.00 87 1015.4
20260905121540 70 109 0.0 0.0 0.00 0.00 0.00 85 1015.3
20260905120041 70 159 0.0 0.0 0.00 0.00 0.00 86 1015.2
20260905114537 69 57 0.0 0.0 0.00 0.00 0.00 87 1015.0
20260905113036 69 57 0.0 0.0 0.00 0.00 0.00 88 1014.8
20260905111557 68 57 0.0 0.0 0.00 0.00 0.00 87 1014.7
20260905110036 68 57 0.0 0.0 0.00 0.00 0.00 87 1014.7
20260905104534 69 57 0.0 0.0 0.00 0.00 0.00 87 1014.4
20260905103034 69 57 0.0 0.0 0.00 0.00 0.00 87 1014.5
20260905101533 69 77 0.0 0.0 0.00 0.00 0.00 86 1014.4
20260905100032 69 77 0.0 0.0 0.00 0.00 0.00 86 1014.3
20260905094531 69 77 0.0 0.0 0.00 0.00 0.00 85 1014.3
20260905093033 69 77 0.0 0.0 0.00 0.00 0.00 85 1014.1
20260905091530 69 77 0.0 0.0 0.00 0.00 0.00 84 1014.2
20260905090028 69 77 0.0 0.0 0.00 0.00 0.00 84 1014.2
20260905084530 69 77 0.0 0.0 0.00 0.00 0.00 84 1014.3
20260905083025 69 77 0.0 1.0 0.00 0.00 0.00 84 1014.5
20260905081526 69 77 0.0 1.0 0.00 0.00 0.00 84 1014.5
20260905080023 70 77 0.0 1.0 0.00 0.00 0.00 85 1014.8
20260905074521 70 77 0.0 1.0 0.00 0.00 0.00 85 1014.9
20260905073023 70 77 0.0 0.0 0.00 0.00 0.00 84 1015.1
20260905071535 70 77 0.0 1.0 0.00 0.00 0.00 84 1015.1
20260905070015 70 77 0.0 1.0 0.00 0.00 0.00 85 1015.3